Fort Wayne, IN

9:00 AM EST on January 21, 2018 (GMT -0500)
Fort Wayne International

Weather History for KFWA - June, 2013

Change the Weather History Date:

Tuesday, June 18, 2013

  Actual Average Record
Temperature  
Mean Temperature 70 °F 71 °F  
Max Temperature 79 °F 82 °F 98 °F (1994)
Min Temperature 61 °F 60 °F 45 °F (1899)
Degree Days  
Heating Degree Days 0 1  
Month to date heating degree days 19 27  
Since 1 June heating degree days 19 27  
Since 1 July heating degree days 6000 6099  
Cooling Degree Days 5 7  
Month to date cooling degree days 78 88  
Year to date cooling degree days 183 145  
Since 1 June cooling degree days 78 88  
Growing Degree Days 22 (Base 50)    
Moisture  
Dew Point 60 °F    
Average Humidity 71    
Maximum Humidity 90    
Minimum Humidity 52    
Precipitation  
Precipitation 0.00 in 0.13 in 1.73 in (2014)
Month to date precipitation 2.38 2.63  
Year to date precipitation 20.05 17.43  
Snow  
Snow 0.00 in - - ()
Month to date snowfall 0.0  
Since 1 June snowfall 0.0  
Snow Depth 0.00 in    
Sea Level Pressure  
Sea Level Pressure 29.94 in    
Wind  
Wind Speed 8 mph (NE)    
Max Wind Speed 18 mph    
Max Gust Speed 21 mph    
Visibility 10 miles    
Events      
T = Trace of Precipitation, MM = Missing Value Source: NWS Daily Summary

Daily Weather History Graph

Daily Weather History Graph

Search for Another Location

Airport or City:

Trip Planner

Search our weather history database for the weather conditions in past years. The results will help you decide how hot, cold, wet, or windy it might be!

Date:

Astronomy

Jun. 18, 2013 Rise Set
Actual Time 6:08 AM EDT 9:15 PM EDT
Civil Twilight 5:34 AM EDT 9:49 PM EDT
Nautical Twilight 4:51 AM EDT 10:32 PM EDT
Astronomical Twilight 4:00 AM EDT 11:23 PM EDT
Moon 3:57 PM EDT (6/18) 2:18 AM EDT (6/18)
Length of Visible Light 16h 14m
Length of Day
15h 07m
Waxing Gibbous, 70% of the Moon is Illuminated
Jun 18
Waxing Gibbous
Jun 23
Full
Jun 30
Last Quarter
Jul 8
New
Jul 15
First Quarter

Hourly Weather History & Observations

Time (EDT) Temp. Dew Point Humidity Pressure Visibility Wind Dir Wind Speed Gust Speed Precip Events Conditions
12:54 AM 70.0 °F 66.0 °F 87% 29.88 in 10.0 mi Calm Calm - N/A   Overcast
1:54 AM 71.1 °F 62.1 °F 73% 29.87 in 10.0 mi North 8.1 mph - N/A   Overcast
2:54 AM 68.0 °F 59.0 °F 73% 29.87 in 10.0 mi Calm Calm - N/A   Overcast
3:54 AM 68.0 °F 59.0 °F 73% 29.88 in 10.0 mi ESE 3.5 mph - N/A   Overcast
4:54 AM 66.0 °F 61.0 °F 84% 29.88 in 10.0 mi Calm Calm - N/A   Overcast
5:54 AM 64.9 °F 60.1 °F 84% 29.90 in 10.0 mi NW 5.8 mph - N/A   Mostly Cloudy
6:54 AM 64.9 °F 59.0 °F 81% 29.92 in 10.0 mi NW 5.8 mph - N/A   Mostly Cloudy
7:54 AM 68.0 °F 61.0 °F 78% 29.92 in 10.0 mi NNE 4.6 mph - N/A   Mostly Cloudy
8:54 AM 71.1 °F 60.1 °F 68% 29.93 in 10.0 mi East 4.6 mph - N/A   Mostly Cloudy
9:54 AM 70.0 °F 61.0 °F 73% 29.96 in 10.0 mi North 10.4 mph - N/A   Mostly Cloudy
10:54 AM 72.0 °F 63.0 °F 73% 29.96 in 10.0 mi NNE 8.1 mph - N/A   Mostly Cloudy
11:28 AM 71.6 °F 62.6 °F 73% 29.98 in 10.0 mi NE 11.5 mph - N/A   Mostly Cloudy
11:54 AM 72.0 °F 63.0 °F 73% 29.97 in 9.0 mi NE 10.4 mph - N/A   Mostly Cloudy
12:54 PM 71.1 °F 63.0 °F 75% 29.97 in 8.0 mi NNE 12.7 mph - N/A   Overcast
1:54 PM 73.0 °F 63.0 °F 71% 29.97 in 10.0 mi ENE 9.2 mph - N/A   Scattered Clouds
2:54 PM 77.0 °F 62.1 °F 60% 29.96 in 10.0 mi ENE 4.6 mph - N/A   Mostly Cloudy
3:54 PM 75.9 °F 60.1 °F 58% 29.95 in 10.0 mi NE 12.7 mph - N/A   Mostly Cloudy
4:54 PM 79.0 °F 60.1 °F 52% 29.95 in 10.0 mi ENE 8.1 mph - N/A   Mostly Cloudy
5:54 PM 78.1 °F 59.0 °F 52% 29.94 in 10.0 mi NE 10.4 mph - N/A   Mostly Cloudy
6:54 PM 73.9 °F 59.0 °F 59% 29.94 in 10.0 mi NE 11.5 mph - N/A   Mostly Cloudy
7:54 PM 73.0 °F 57.9 °F 59% 29.96 in 10.0 mi NE 8.1 mph - N/A   Mostly Cloudy
8:54 PM 70.0 °F 57.0 °F 63% 29.99 in 10.0 mi ENE 15.0 mph - N/A   Mostly Cloudy
9:54 PM 69.1 °F 57.0 °F 65% 30.01 in 10.0 mi ENE 12.7 mph - N/A   Scattered Clouds
10:54 PM 66.0 °F 55.0 °F 68% 30.03 in 10.0 mi ENE 9.2 mph - N/A   Scattered Clouds
11:54 PM 64.0 °F 55.0 °F 73% 30.04 in 10.0 mi ENE 8.1 mph - N/A   Partly Cloudy